KLM44M ENGM-EGKK

Flight info

Callsign KLM44M
Flight time N/A
Altitude 40000
Route VIPPA DCT ELKOP DCT AMSEV DCT UPGAS DCT TIPAN DCT WECOW DCT BINBO DCT AKOKO N866 BUKUT P7 BARMI
Aircraft A333/H-SDE3GHIJ2J3J5M1RVWXY/LB2D1

Departure

Time 2026-05-05 14:01
Airport Oslo-Gardermoen International Airport (ENGM)

Arrival

Time N/A
Airport London Gatwick Airport (EGKK)
Time Latitude Longitude Altitude Speed Heading
2026-05-05 13:35 60.19479 11.10371 679 ft 0 kts 195°
2026-05-05 13:52 60.19496 11.10380 676 ft 3 kts 195°
2026-05-05 13:52 60.19515 11.10386 679 ft 3 kts 158°
2026-05-05 13:53 60.19532 11.10363 677 ft 3 kts 112°
2026-05-05 13:53 60.19532 11.10358 677 ft 0 kts 112°
2026-05-05 13:54 60.19532 11.10360 677 ft 0 kts 112°
2026-05-05 13:54 60.19531 11.10367 677 ft 0 kts 112°
2026-05-05 13:55 60.19531 11.10370 678 ft 1 kts 104°
2026-05-05 13:55 60.19525 11.10481 678 ft 15 kts 97°
2026-05-05 13:56 60.19492 11.10734 679 ft 22 kts 108°
2026-05-05 13:56 60.19444 11.11072 681 ft 24 kts 105°
2026-05-05 13:56 60.19404 11.11227 680 ft 8 kts 150°
2026-05-05 13:56 60.19336 11.11227 682 ft 12 kts 192°
2026-05-05 13:57 60.19235 11.11174 680 ft 18 kts 196°
2026-05-05 13:57 60.19092 11.11090 677 ft 24 kts 196°
2026-05-05 13:57 60.18918 11.10990 677 ft 28 kts 197°
2026-05-05 13:57 60.18714 11.10870 677 ft 32 kts 196°
2026-05-05 13:58 60.18521 11.10757 680 ft 27 kts 197°
2026-05-05 13:58 60.18326 11.10637 679 ft 31 kts 197°
2026-05-05 13:58 60.18147 11.10538 679 ft 24 kts 194°
2026-05-05 13:58 60.17967 11.10436 678 ft 28 kts 199°
2026-05-05 13:59 60.17738 11.10422 677 ft 13 kts 123°
2026-05-05 13:59 60.17705 11.10615 675 ft 18 kts 107°
2026-05-05 14:00 60.17804 11.10907 676 ft 26 kts 17°
2026-05-05 14:00 60.18185 11.11122 677 ft 87 kts 16°
2026-05-05 14:00 60.18937 11.11557 677 ft 137 kts 15°
2026-05-05 14:00 60.19937 11.12145 1020 ft 153 kts 13°
2026-05-05 14:01 60.20821 11.13382 1687 ft 164 kts 51°
2026-05-05 14:01 60.21111 11.15736 2301 ft 175 kts 90°
2026-05-05 14:01 60.21251 11.18265 2761 ft 193 kts 73°
2026-05-05 14:01 60.21600 11.21143 3103 ft 222 kts 73°
2026-05-05 14:02 60.21972 11.24459 3591 ft 243 kts 76°
2026-05-05 14:02 60.22306 11.27849 4374 ft 250 kts 80°
2026-05-05 14:02 60.22114 11.31332 5235 ft 258 kts 114°
2026-05-05 14:02 60.20892 11.34185 5930 ft 269 kts 152°
2026-05-05 14:03 60.19067 11.35266 6733 ft 273 kts 176°
2026-05-05 14:03 60.17163 11.35525 7660 ft 275 kts 184°
2026-05-05 14:03 60.15251 11.35072 8673 ft 274 kts 197°
2026-05-05 14:03 60.13522 11.33756 9631 ft 273 kts 210°
2026-05-05 14:04 60.11775 11.31813 10403 ft 283 kts 213°
2026-05-05 14:04 60.09987 11.29734 10793 ft 305 kts 213°
2026-05-05 14:04 60.08085 11.27569 11230 ft 323 kts 213°
2026-05-05 14:04 60.06099 11.25355 11936 ft 331 kts 212°
2026-05-05 14:05 60.04070 11.23121 12719 ft 336 kts 212°
2026-05-05 14:05 60.01971 11.20828 13511 ft 341 kts 213°
2026-05-05 14:05 59.99886 11.18559 14286 ft 343 kts 213°
2026-05-05 14:05 59.97835 11.16337 15161 ft 340 kts 215°
2026-05-05 14:06 59.95682 11.14011 16187 ft 336 kts 216°
2026-05-05 14:06 59.93654 11.11813 17051 ft 335 kts 216°
2026-05-05 14:06 59.91522 11.09507 17874 ft 335 kts 217°
2026-05-05 14:06 59.89465 11.07287 18570 ft 336 kts 217°
2026-05-05 14:07 59.87410 11.05074 19227 ft 336 kts 218°
2026-05-05 14:07 59.86052 11.03613 19651 ft 337 kts 218°
2026-05-05 14:07 59.83969 11.01375 20312 ft 338 kts 218°
2026-05-05 14:07 59.81599 10.98835 21073 ft 338 kts 219°
2026-05-05 14:08 59.79758 10.96862 21648 ft 338 kts 219°
2026-05-05 14:08 59.77657 10.94614 22269 ft 339 kts 220°
2026-05-05 14:08 59.75595 10.92413 22886 ft 340 kts 220°
2026-05-05 14:08 59.73493 10.90169 23510 ft 341 kts 221°
2026-05-05 14:09 59.71395 10.87929 23853 ft 345 kts 220°
2026-05-05 14:09 59.69188 10.85566 24055 ft 354 kts 219°
2026-05-05 14:09 59.66938 10.83172 24471 ft 358 kts 219°
2026-05-05 14:09 59.64735 10.80839 24893 ft 360 kts 219°
2026-05-05 14:10 59.62525 10.78617 25305 ft 367 kts 216°
2026-05-05 14:10 59.60130 10.76452 25732 ft 370 kts 215°
2026-05-05 14:10 59.57776 10.74351 26145 ft 372 kts 215°
2026-05-05 14:10 59.55364 10.72226 26545 ft 376 kts 214°
2026-05-05 14:11 59.52969 10.70141 26928 ft 378 kts 214°
2026-05-05 14:11 59.50511 10.68016 27324 ft 381 kts 214°
2026-05-05 14:11 59.48074 10.65918 27688 ft 384 kts 214°
2026-05-05 14:11 59.45613 10.63806 28054 ft 386 kts 214°
2026-05-05 14:12 59.43144 10.61689 28280 ft 390 kts 212°
2026-05-05 14:12 59.40648 10.59551 28615 ft 392 kts 212°
2026-05-05 14:12 59.38138 10.57406 29017 ft 394 kts 212°
2026-05-05 14:12 59.35617 10.55254 29385 ft 396 kts 212°
2026-05-05 14:13 59.33078 10.53089 29751 ft 398 kts 212°
2026-05-05 14:13 59.30529 10.50918 30138 ft 400 kts 212°
2026-05-05 14:13 59.27967 10.48739 30409 ft 403 kts 212°
2026-05-05 14:13 59.25379 10.46540 30669 ft 406 kts 212°
2026-05-05 14:14 59.22776 10.44332 30912 ft 408 kts 212°
2026-05-05 14:14 59.20198 10.42149 31182 ft 411 kts 212°
2026-05-05 14:14 59.17564 10.39925 31399 ft 413 kts 211°
2026-05-05 14:14 59.14916 10.37692 31667 ft 416 kts 211°
2026-05-05 14:15 59.12260 10.35456 31922 ft 418 kts 211°
2026-05-05 14:15 59.09578 10.33203 32265 ft 418 kts 211°
2026-05-05 14:15 59.06904 10.30963 32610 ft 417 kts 211°
2026-05-05 14:15 59.04235 10.28733 32985 ft 417 kts 211°
2026-05-05 14:16 59.01568 10.26506 33319 ft 417 kts 211°
2026-05-05 14:16 58.98911 10.24288 33670 ft 417 kts 211°
2026-05-05 14:16 58.96246 10.22067 33996 ft 417 kts 211°
2026-05-05 14:16 58.93580 10.19847 34248 ft 417 kts 211°
2026-05-05 14:17 58.90899 10.17617 34350 ft 420 kts 211°
2026-05-05 14:17 58.88202 10.15377 34596 ft 421 kts 211°
2026-05-05 14:17 58.85549 10.13180 34850 ft 421 kts 210°
2026-05-05 14:17 58.82845 10.10946 35079 ft 422 kts 210°
2026-05-05 14:18 58.80077 10.08662 35316 ft 423 kts 210°
2026-05-05 14:18 58.77283 10.06361 35532 ft 424 kts 210°
2026-05-05 14:18 58.74592 10.04149 35743 ft 425 kts 210°
2026-05-05 14:18 58.71853 10.01901 35959 ft 426 kts 210°
2026-05-05 14:19 58.69131 9.99669 36167 ft 427 kts 210°
2026-05-05 14:19 58.66387 9.97425 36373 ft 429 kts 209°
2026-05-05 14:19 58.63636 9.95179 36528 ft 430 kts 209°
2026-05-05 14:19 58.60883 9.92934 36755 ft 430 kts 209°
2026-05-05 14:20 58.58204 9.90416 36978 ft 425 kts 216°
2026-05-05 14:20 58.55683 9.87513 37170 ft 425 kts 217°
2026-05-05 14:20 58.53188 9.84494 37394 ft 425 kts 218°
2026-05-05 14:20 58.50708 9.81411 37578 ft 425 kts 218°
2026-05-05 14:21 58.48223 9.78285 37781 ft 426 kts 218°
2026-05-05 14:21 58.45748 9.75167 37964 ft 427 kts 218°
2026-05-05 14:21 58.43274 9.72060 38166 ft 428 kts 218°
2026-05-05 14:21 58.40781 9.68941 38345 ft 429 kts 218°
2026-05-05 14:22 58.38280 9.65828 38543 ft 429 kts 217°
2026-05-05 14:22 58.35777 9.62723 38691 ft 430 kts 217°
2026-05-05 14:22 58.33263 9.59615 38839 ft 431 kts 217°
2026-05-05 14:22 58.30739 9.56499 38981 ft 431 kts 217°
2026-05-05 14:23 58.28221 9.53398 39115 ft 433 kts 217°
2026-05-05 14:23 58.25691 9.50286 39163 ft 435 kts 217°
2026-05-05 14:23 58.20562 9.43990 39274 ft 441 kts 217°
2026-05-05 14:24 58.15381 9.37656 39376 ft 446 kts 217°
2026-05-05 14:24 58.11026 9.32348 39422 ft 451 kts 217°
2026-05-05 14:25 58.05712 9.25893 39516 ft 456 kts 217°
2026-05-05 14:25 58.03040 9.22659 39643 ft 456 kts 217°
2026-05-05 14:25 58.00366 9.19428 39766 ft 457 kts 217°
2026-05-05 14:26 57.97684 9.16192 39882 ft 458 kts 217°
2026-05-05 14:26 57.94998 9.12957 39953 ft 459 kts 217°
2026-05-05 14:26 57.89611 9.06485 39960 ft 459 kts 216°
2026-05-05 14:27 57.84259 9.00080 39952 ft 458 kts 216°
2026-05-05 14:27 57.78887 8.93671 39962 ft 458 kts 216°
2026-05-05 14:28 57.73505 8.87272 39963 ft 458 kts 216°
2026-05-05 14:28 57.68150 8.80752 39962 ft 455 kts 221°
2026-05-05 14:29 57.63350 8.73139 39965 ft 453 kts 225°
2026-05-05 14:29 57.58686 8.65239 39967 ft 453 kts 226°
2026-05-05 14:30 57.54040 8.57298 39970 ft 453 kts 225°
2026-05-05 14:30 57.49373 8.49377 39976 ft 453 kts 225°
2026-05-05 14:31 57.44706 8.41516 39976 ft 453 kts 225°
2026-05-05 14:31 57.40055 8.33718 39982 ft 454 kts 225°
2026-05-05 14:32 57.35349 8.25858 39985 ft 454 kts 225°
2026-05-05 14:32 57.30650 8.18036 39989 ft 454 kts 225°
2026-05-05 14:33 57.25944 8.10230 39988 ft 454 kts 225°
2026-05-05 14:33 57.21237 8.02451 39991 ft 454 kts 225°
2026-05-05 14:34 57.16515 7.94673 39993 ft 454 kts 225°
2026-05-05 14:34 57.11803 7.86941 39981 ft 454 kts 225°
2026-05-05 14:35 57.07078 7.79214 39993 ft 454 kts 224°
2026-05-05 14:35 57.02340 7.71492 39997 ft 454 kts 224°
2026-05-05 14:36 56.97615 7.63821 39998 ft 454 kts 224°
2026-05-05 14:36 56.92904 7.56197 40004 ft 454 kts 224°
2026-05-05 14:37 56.88166 7.48558 39982 ft 454 kts 224°
2026-05-05 14:37 56.83409 7.40915 40003 ft 455 kts 224°
2026-05-05 14:38 56.78648 7.33293 40003 ft 455 kts 224°
2026-05-05 14:38 56.73895 7.25710 40004 ft 455 kts 224°
2026-05-05 14:39 56.69155 7.18175 40007 ft 455 kts 224°
2026-05-05 14:39 56.64387 7.10621 40006 ft 455 kts 224°
2026-05-05 14:40 56.59596 7.03056 40003 ft 455 kts 224°
2026-05-05 14:40 56.54825 6.95550 40003 ft 454 kts 224°
2026-05-05 14:41 56.50029 6.88030 40004 ft 455 kts 224°
2026-05-05 14:41 56.45248 6.80560 40004 ft 455 kts 223°
2026-05-05 14:42 56.40449 6.73088 40001 ft 455 kts 223°
2026-05-05 14:42 56.35641 6.65627 40000 ft 455 kts 223°
2026-05-05 14:43 56.30860 6.58235 40001 ft 455 kts 223°
2026-05-05 14:43 56.26052 6.50827 40001 ft 455 kts 223°
2026-05-05 14:44 56.21250 6.43452 39995 ft 450 kts 223°
2026-05-05 14:44 56.16560 6.36283 39994 ft 439 kts 223°
2026-05-05 14:45 56.11941 6.29235 39986 ft 437 kts 223°
2026-05-05 14:45 56.07304 6.22178 39997 ft 438 kts 223°
2026-05-05 14:46 56.02652 6.15125 39996 ft 439 kts 223°
2026-05-05 14:46 55.97989 6.08080 39996 ft 439 kts 223°
2026-05-05 14:47 55.93317 6.01047 39991 ft 439 kts 223°
2026-05-05 14:47 55.88643 5.94032 39991 ft 439 kts 222°
2026-05-05 14:48 55.83962 5.87032 39991 ft 439 kts 222°
2026-05-05 14:48 55.79282 5.80054 39991 ft 439 kts 222°
2026-05-05 14:49 55.74588 5.73078 39989 ft 439 kts 222°
2026-05-05 14:49 55.69904 5.66139 39990 ft 439 kts 222°
2026-05-05 14:50 55.65203 5.59198 39971 ft 439 kts 222°
2026-05-05 14:50 55.60510 5.52289 39990 ft 440 kts 222°
2026-05-05 14:51 55.55835 5.45430 39987 ft 440 kts 222°
2026-05-05 14:51 55.51084 5.38483 39985 ft 440 kts 222°
2026-05-05 14:52 55.46398 5.31652 39990 ft 440 kts 222°
2026-05-05 14:52 55.41669 5.24782 39990 ft 440 kts 221°
2026-05-05 14:53 55.36946 5.17941 39991 ft 440 kts 221°
2026-05-05 14:53 55.32201 5.11089 39989 ft 440 kts 221°
2026-05-05 14:54 55.27465 5.04273 39990 ft 440 kts 221°
2026-05-05 14:54 55.22433 4.98131 39987 ft 443 kts 213°
2026-05-05 14:55 55.17052 4.92861 39987 ft 444 kts 211°
2026-05-05 14:55 55.11632 4.87793 39986 ft 445 kts 211°
2026-05-05 14:56 55.06167 4.82712 39988 ft 445 kts 211°
2026-05-05 14:56 55.00697 4.77612 39981 ft 445 kts 211°
2026-05-05 14:57 54.95231 4.72513 39982 ft 445 kts 211°
2026-05-05 14:57 54.89786 4.67446 39972 ft 445 kts 211°
2026-05-05 14:58 54.84300 4.62358 39983 ft 446 kts 210°
2026-05-05 14:58 54.78815 4.57288 39984 ft 446 kts 210°
2026-05-05 14:59 54.73321 4.52225 39984 ft 447 kts 210°
2026-05-05 14:59 54.67869 4.47218 39986 ft 447 kts 210°
2026-05-05 15:00 54.63279 4.43012 39978 ft 446 kts 210°
2026-05-05 15:00 54.56899 4.37186 39984 ft 446 kts 210°
2026-05-05 15:01 54.51419 4.32198 39983 ft 446 kts 210°
2026-05-05 15:01 54.45920 4.27209 39989 ft 447 kts 210°
2026-05-05 15:02 54.40425 4.22237 39982 ft 447 kts 210°
2026-05-05 15:02 54.34909 4.17262 39988 ft 447 kts 210°
2026-05-05 15:03 54.29421 4.12329 39990 ft 448 kts 210°
2026-05-05 15:03 54.23863 4.07347 39986 ft 448 kts 210°
2026-05-05 15:04 54.18383 4.02449 39992 ft 448 kts 210°
2026-05-05 15:04 54.12859 3.97528 39997 ft 448 kts 209°
2026-05-05 15:05 54.04576 3.90176 39992 ft 448 kts 209°
2026-05-05 15:06 53.99043 3.85283 39995 ft 448 kts 209°
2026-05-05 15:06 53.93524 3.80418 39975 ft 448 kts 209°
2026-05-05 15:07 53.88018 3.75579 39987 ft 447 kts 209°
2026-05-05 15:07 53.82486 3.70733 39988 ft 447 kts 209°
2026-05-05 15:08 53.76955 3.65902 39987 ft 447 kts 209°
2026-05-05 15:08 53.71405 3.61068 39994 ft 448 kts 209°
2026-05-05 15:09 53.65859 3.56252 39983 ft 448 kts 208°
2026-05-05 15:09 53.60310 3.51449 39984 ft 448 kts 208°
2026-05-05 15:10 53.55699 3.47468 39984 ft 448 kts 208°
2026-05-05 15:10 53.50150 3.42690 39984 ft 448 kts 208°
2026-05-05 15:11 53.44583 3.37911 39990 ft 448 kts 208°
2026-05-05 15:11 53.39042 3.33168 39798 ft 446 kts 208°
2026-05-05 15:11 53.36286 3.30816 39567 ft 442 kts 208°
2026-05-05 15:12 53.33560 3.28493 39328 ft 440 kts 208°
2026-05-05 15:12 53.30826 3.26165 39110 ft 439 kts 208°
2026-05-05 15:12 53.28108 3.23854 38874 ft 439 kts 208°
2026-05-05 15:12 53.25381 3.21537 38607 ft 439 kts 208°
2026-05-05 15:13 53.22656 3.19227 38175 ft 439 kts 208°
2026-05-05 15:13 53.19930 3.16918 37748 ft 438 kts 208°
2026-05-05 15:13 53.17214 3.14622 37348 ft 437 kts 208°
2026-05-05 15:13 53.14509 3.12337 36949 ft 436 kts 208°
2026-05-05 15:14 53.11798 3.10052 36546 ft 435 kts 208°
2026-05-05 15:14 53.09086 3.07769 36163 ft 434 kts 208°
2026-05-05 15:14 53.06410 3.05520 35780 ft 433 kts 208°
2026-05-05 15:14 53.03680 3.03227 35417 ft 432 kts 208°
2026-05-05 15:15 53.00988 3.00971 35045 ft 432 kts 208°
2026-05-05 15:15 52.98313 2.98731 34681 ft 431 kts 208°
2026-05-05 15:15 52.95636 2.96493 34308 ft 430 kts 208°
2026-05-05 15:15 52.92966 2.94264 33944 ft 430 kts 208°
2026-05-05 15:16 52.90295 2.92036 33522 ft 430 kts 208°
2026-05-05 15:16 52.87607 2.89797 33111 ft 430 kts 208°
2026-05-05 15:16 52.84940 2.87578 32693 ft 430 kts 208°
2026-05-05 15:16 52.82301 2.85387 32298 ft 431 kts 208°
2026-05-05 15:17 52.79616 2.83160 31903 ft 431 kts 207°
2026-05-05 15:17 52.76934 2.80939 31527 ft 431 kts 207°
2026-05-05 15:17 52.74254 2.78725 31132 ft 429 kts 207°
2026-05-05 15:17 52.71578 2.76519 30742 ft 427 kts 207°
2026-05-05 15:18 52.68927 2.74336 30363 ft 425 kts 207°
2026-05-05 15:18 52.66292 2.72167 29987 ft 423 kts 207°
2026-05-05 15:18 52.63667 2.70009 29553 ft 421 kts 207°
2026-05-05 15:18 52.61051 2.67862 29124 ft 418 kts 207°
2026-05-05 15:19 52.58446 2.65726 28706 ft 416 kts 207°
2026-05-05 15:19 52.55859 2.63608 28290 ft 414 kts 207°
2026-05-05 15:19 52.53298 2.61513 27877 ft 412 kts 207°
2026-05-05 15:19 52.50720 2.59407 27479 ft 410 kts 207°
2026-05-05 15:20 52.48179 2.57334 27062 ft 409 kts 206°
2026-05-05 15:20 52.45624 2.55252 26679 ft 409 kts 206°
2026-05-05 15:20 52.43075 2.53177 26299 ft 408 kts 206°
2026-05-05 15:20 52.40523 2.51104 25927 ft 406 kts 206°
2026-05-05 15:21 52.37999 2.49055 25541 ft 405 kts 206°
2026-05-05 15:21 52.35481 2.47014 25186 ft 403 kts 206°
2026-05-05 15:21 52.32991 2.44999 24815 ft 402 kts 206°
2026-05-05 15:21 52.30486 2.42974 24451 ft 401 kts 206°
2026-05-05 15:22 52.28001 2.40967 24096 ft 400 kts 206°
2026-05-05 15:22 52.25509 2.38957 23734 ft 398 kts 205°
2026-05-05 15:22 52.23024 2.36955 23360 ft 396 kts 205°
2026-05-05 15:22 52.20562 2.34974 22938 ft 395 kts 205°
2026-05-05 15:23 52.18110 2.33005 22576 ft 391 kts 205°
2026-05-05 15:23 52.15677 2.31052 22317 ft 388 kts 205°
2026-05-05 15:23 52.13252 2.29109 22060 ft 388 kts 205°
2026-05-05 15:23 52.10833 2.27173 21958 ft 388 kts 206°
2026-05-05 15:24 52.08410 2.25235 21952 ft 386 kts 205°
2026-05-05 15:24 52.05996 2.23308 21953 ft 386 kts 205°
2026-05-05 15:24 52.03582 2.21383 21949 ft 388 kts 205°
2026-05-05 15:24 52.01159 2.19452 21908 ft 388 kts 204°
2026-05-05 15:25 51.98743 2.17531 21621 ft 387 kts 205°
2026-05-05 15:25 51.96319 2.15605 21266 ft 386 kts 205°
2026-05-05 15:25 51.93897 2.13683 20976 ft 386 kts 205°
2026-05-05 15:25 51.91486 2.11771 20690 ft 385 kts 205°
2026-05-05 15:26 51.89088 2.09874 20389 ft 383 kts 205°
2026-05-05 15:26 51.86693 2.07980 20128 ft 382 kts 205°
2026-05-05 15:26 51.84307 2.06096 19856 ft 382 kts 205°
2026-05-05 15:26 51.81921 2.04213 19581 ft 380 kts 205°
2026-05-05 15:27 51.79554 2.02348 19313 ft 379 kts 205°
2026-05-05 15:27 51.77180 2.00479 19053 ft 379 kts 205°
2026-05-05 15:27 51.74804 1.98611 18795 ft 379 kts 205°
2026-05-05 15:27 51.72431 1.96748 18537 ft 378 kts 205°
2026-05-05 15:28 51.70073 1.94899 18262 ft 377 kts 205°
2026-05-05 15:28 51.67720 1.93053 17968 ft 376 kts 206°
2026-05-05 15:28 51.65485 1.90883 17677 ft 377 kts 217°
2026-05-05 15:28 51.63601 1.88006 17394 ft 376 kts 227°
2026-05-05 15:29 51.61856 1.84860 17096 ft 375 kts 228°
2026-05-05 15:29 51.60152 1.81716 16803 ft 374 kts 229°
2026-05-05 15:29 51.58437 1.78556 16516 ft 372 kts 228°
2026-05-05 15:29 51.56738 1.75444 16233 ft 371 kts 228°
2026-05-05 15:30 51.55040 1.72347 15959 ft 369 kts 228°
2026-05-05 15:30 51.53336 1.69245 15677 ft 369 kts 228°
2026-05-05 15:30 51.51633 1.66156 15400 ft 369 kts 228°
2026-05-05 15:30 51.49949 1.63062 15123 ft 367 kts 230°
2026-05-05 15:31 51.48588 1.59626 14851 ft 366 kts 244°
2026-05-05 15:31 51.47623 1.55849 14578 ft 366 kts 249°
2026-05-05 15:31 51.46747 1.52012 14316 ft 365 kts 249°
2026-05-05 15:31 51.45881 1.48177 14082 ft 364 kts 250°
2026-05-05 15:32 51.45015 1.44373 13870 ft 363 kts 250°
2026-05-05 15:32 51.44126 1.40594 13606 ft 361 kts 246°
2026-05-05 15:32 51.42864 1.37211 13329 ft 359 kts 229°
2026-05-05 15:32 51.41014 1.34511 13070 ft 356 kts 218°
2026-05-05 15:33 51.39037 1.32142 12803 ft 355 kts 216°
2026-05-05 15:33 51.37050 1.29827 12546 ft 354 kts 216°
2026-05-05 15:33 51.35065 1.27512 12288 ft 353 kts 216°
2026-05-05 15:33 51.33086 1.25194 12035 ft 351 kts 216°
2026-05-05 15:34 51.31123 1.22888 11937 ft 351 kts 216°
2026-05-05 15:34 51.29129 1.20542 11780 ft 353 kts 216°
2026-05-05 15:34 51.27130 1.18191 11523 ft 351 kts 216°
2026-05-05 15:34 51.25193 1.15914 11284 ft 349 kts 216°
2026-05-05 15:35 51.23215 1.13590 11020 ft 347 kts 216°
2026-05-05 15:35 51.21270 1.11308 10768 ft 347 kts 216°
2026-05-05 15:35 51.19336 1.09040 10534 ft 345 kts 217°
2026-05-05 15:35 51.17416 1.06791 10305 ft 343 kts 217°
2026-05-05 15:36 51.15458 1.04500 10051 ft 342 kts 217°
2026-05-05 15:36 51.13519 1.02234 9793 ft 337 kts 217°
2026-05-05 15:36 51.11661 1.00065 9531 ft 325 kts 217°
2026-05-05 15:36 51.09852 0.97956 9260 ft 314 kts 217°
2026-05-05 15:37 51.08186 0.96011 8999 ft 305 kts 218°
2026-05-05 15:37 51.07070 0.94460 8809 ft 298 kts 227°
2026-05-05 15:37 51.05889 0.91880 8563 ft 288 kts 244°
2026-05-05 15:37 51.05138 0.88782 8306 ft 284 kts 253°
2026-05-05 15:38 51.04588 0.85778 8064 ft 283 kts 256°
2026-05-05 15:38 51.04071 0.82743 7979 ft 282 kts 257°
2026-05-05 15:38 51.03570 0.79742 7992 ft 282 kts 258°
2026-05-05 15:38 51.03067 0.76721 8001 ft 283 kts 257°
2026-05-05 15:39 51.02565 0.73707 8018 ft 283 kts 257°
2026-05-05 15:39 51.02062 0.70686 8038 ft 283 kts 257°
2026-05-05 15:39 51.01577 0.67772 8028 ft 283 kts 256°
2026-05-05 15:39 51.01055 0.64645 8051 ft 282 kts 256°
2026-05-05 15:40 51.00557 0.61673 8017 ft 283 kts 257°
2026-05-05 15:40 51.00038 0.58582 7767 ft 282 kts 257°
2026-05-05 15:40 50.99537 0.55599 7565 ft 281 kts 258°
2026-05-05 15:40 50.99024 0.52544 7396 ft 281 kts 257°
2026-05-05 15:41 50.98515 0.49518 7249 ft 280 kts 257°
2026-05-05 15:41 50.98016 0.46553 7102 ft 279 kts 256°
2026-05-05 15:41 50.97511 0.43579 6943 ft 274 kts 258°
2026-05-05 15:41 50.96903 0.40752 6786 ft 266 kts 249°
2026-05-05 15:42 50.96125 0.38140 6622 ft 258 kts 246°
2026-05-05 15:42 50.95349 0.35621 6461 ft 250 kts 245°
2026-05-05 15:42 50.94591 0.33169 6303 ft 247 kts 245°
2026-05-05 15:42 50.93830 0.30702 6137 ft 246 kts 245°
2026-05-05 15:43 50.93224 0.28224 6052 ft 242 kts 263°
2026-05-05 15:43 50.93140 0.25573 6055 ft 241 kts 275°
2026-05-05 15:43 50.93222 0.22919 6050 ft 240 kts 277°
2026-05-05 15:43 50.93311 0.20275 6044 ft 241 kts 276°
2026-05-05 15:44 50.93388 0.17618 6041 ft 242 kts 276°
2026-05-05 15:44 50.93459 0.14951 6034 ft 242 kts 276°
2026-05-05 15:44 50.93544 0.12306 6026 ft 241 kts 278°
2026-05-05 15:44 50.93735 0.09650 6016 ft 240 kts 281°
2026-05-05 15:45 50.93971 0.07023 6011 ft 240 kts 282°
2026-05-05 15:45 50.94166 0.04715 5995 ft 241 kts 281°
2026-05-05 15:45 50.94425 0.01733 5747 ft 240 kts 281°
2026-05-05 15:45 50.94669 -0.00844 5481 ft 239 kts 281°
2026-05-05 15:46 50.94923 -0.03460 5215 ft 238 kts 281°
2026-05-05 15:46 50.95181 -0.06102 5013 ft 237 kts 281°
2026-05-05 15:46 50.95435 -0.08748 4966 ft 238 kts 281°
2026-05-05 15:46 50.95677 -0.11300 4842 ft 238 kts 281°
2026-05-05 15:47 50.95916 -0.13893 4712 ft 238 kts 281°
2026-05-05 15:47 50.96078 -0.15615 4627 ft 238 kts 281°
2026-05-05 15:47 50.96409 -0.19077 4452 ft 237 kts 281°
2026-05-05 15:47 50.96651 -0.21642 4329 ft 238 kts 281°
2026-05-05 15:48 50.96896 -0.24231 4200 ft 237 kts 281°
2026-05-05 15:48 50.97137 -0.26814 4069 ft 237 kts 281°
2026-05-05 15:48 50.97377 -0.29393 3938 ft 237 kts 281°
2026-05-05 15:48 50.97618 -0.32003 3816 ft 236 kts 281°
2026-05-05 15:49 50.97868 -0.34618 3686 ft 236 kts 281°
2026-05-05 15:49 50.98311 -0.37144 3548 ft 232 kts 303°
2026-05-05 15:49 50.99298 -0.39058 3445 ft 229 kts 318°
2026-05-05 15:49 51.00496 -0.40816 3289 ft 229 kts 321°
2026-05-05 15:50 51.01696 -0.42528 3179 ft 226 kts 321°
2026-05-05 15:50 51.02824 -0.44136 3051 ft 213 kts 321°
2026-05-05 15:50 51.03878 -0.45671 3000 ft 193 kts 321°
2026-05-05 15:50 51.04808 -0.47018 2997 ft 187 kts 321°
2026-05-05 15:51 51.05643 -0.48236 2987 ft 186 kts 320°
2026-05-05 15:51 51.06872 -0.49514 2985 ft 181 kts 349°
2026-05-05 15:51 51.08134 -0.49237 2992 ft 177 kts 30°
2026-05-05 15:51 51.08783 -0.48412 2998 ft 177 kts 45°
2026-05-05 15:52 51.09615 -0.46884 2988 ft 170 kts 50°
2026-05-05 15:52 51.10327 -0.45488 2938 ft 164 kts 50°
2026-05-05 15:52 51.11100 -0.44188 2756 ft 160 kts 36°
2026-05-05 15:52 51.11713 -0.43582 2633 ft 157 kts 31°
2026-05-05 15:53 51.12634 -0.41989 2575 ft 156 kts 62°
2026-05-05 15:53 51.12965 -0.40021 2426 ft 157 kts 86°
2026-05-05 15:53 51.12864 -0.38924 2285 ft 160 kts 102°
2026-05-05 15:53 51.12649 -0.36628 1900 ft 156 kts 84°
2026-05-05 15:54 51.12756 -0.34907 1627 ft 156 kts 79°
2026-05-05 15:54 51.12930 -0.33190 1496 ft 156 kts 77°
2026-05-05 15:54 51.13063 -0.32066 1497 ft 156 kts 76°
2026-05-05 15:54 51.13349 -0.29741 1330 ft 140 kts 77°
2026-05-05 15:55 51.13540 -0.28388 1208 ft 129 kts 75°
2026-05-05 15:55 51.13726 -0.27009 1059 ft 125 kts 75°
2026-05-05 15:55 51.13916 -0.25682 887 ft 121 kts 76°
2026-05-05 15:55 51.14094 -0.24361 742 ft 123 kts 77°
2026-05-05 15:56 51.14269 -0.23028 542 ft 123 kts 78°
2026-05-05 15:56 51.14440 -0.21689 379 ft 122 kts 78°
2026-05-05 15:56 51.14603 -0.20461 278 ft 118 kts 78°
2026-05-05 15:56 51.14748 -0.19513 223 ft 115 kts 76°
2026-05-05 15:57 51.14912 -0.18397 211 ft 109 kts 78°